Theta_e
290 290 290 290 290 290 290 290 288 284 285 290 286 290 289 289 290 289 290 291 294 295 295 296 298 298 299 300 301 302 306 306 310 313 315 317 318 322
289 287 287 288 288 288 287 287 287 285 283 286 285 286 287 287 288 287 287 290 291 291 292 293 294 295 296 297 298 299 299 300 301 303 308 312 314 316
286 286 285 286 284 285 286 285 284 283 281 281 284 284 283 283 284 284 285 285 286 288 290 291 292 293 294 294 295 296 297 297 298 299 301 303 306 310
284 283 283 284 283 284 283 281 282 282 280 278 280 281 281 282 281 281 282 283 283 285 288 290 291 291 292 292 293 293 294 294 295 296 298 300 301 304
283 281 282 281 279 280 280 279 279 280 279 279 278 280 279 279 277 278 279 280 282 284 286 288 286 288 289 290 291 292 292 292 293 295 297 297 298 299
281 280 279 278 278 279 279 279 279 278 278 278 278 276 276 277 276 274 274 277 276 279 283 280 282 285 287 289 289 290 291 293 294 295 295 296 297 298
279 278 278 278 280 280 278 278 277 277 276 275 274 274 273 273 273 274 273 274 274 275 274 275 277 279 281 284 285 287 288 288 290 292 294 294 294 295
277 277 276 277 278 279 279 279 278 276 275 273 273 272 272 273 273 273 272 270 269 274 272 272 276 276 278 279 282 283 285 287 289 290 292 292 293 294
276 277 275 276 277 277 277 277 276 278 277 273 271 271 271 272 272 271 271 270 269 271 271 269 274 273 275 276 279 282 285 285 284 286 287 289 291 291
275 275 274 275 277 276 274 273 274 274 273 273 271 271 273 273 272 271 269 268 268 271 271 268 271 270 272 273 279 282 281 281 283 283 285 287 289 291
274 274 274 274 277 276 272 272 272 272 272 272 272 273 273 273 273 268 263 262 262 266 271 267 268 268 270 271 275 277 278 279 280 282 282 283 286 290
273 273 275 275 275 275 271 271 268 269 267 266 266 268 268 268 270 268 266 261 261 260 269 265 266 266 263 270 270 271 271 275 278 277 280 282 284 286
271 271 271 274 273 273 272 271 269 267 265 263 263 264 264 265 265 265 266 265 262 261 266 266 264 264 264 265 267 268 269 270 270 273 278 281 283 283
270 270 270 272 271 270 270 270 268 265 261 258 258 260 261 262 263 263 264 264 265 264 265 266 263 263 262 262 261 265 266 268 270 271 275 276 279 282
270 269 269 269 268 266 267 267 264 262 259 255 258 259 260 261 262 261 262 262 262 263 265 266 264 263 263 261 261 262 264 265 268 272 270 271 273 274
266 265 266 266 265 264 262 262 261 260 259 258 258 259 259 259 258 260 258 258 257 258 262 264 264 263 260 262 262 261 263 262 267 267 269 269 271 274
259 259 259 259 259 259 258 258 259 258 257 257 256 256 256 257 257 258 257 256 254 255 256 259 261 262 262 262 260 262 263 263 265 266 266 266 269 272
257 255 256 256 256 256 256 256 256 255 256 255 254 254 254 254 254 255 255 254 253 254 255 257 257 257 259 260 266 261 262 262 264 265 266 265 266 269
254 254 254 254 254 255 255 254 253 254 254 253 253 253 253 252 252 252 253 253 252 253 254 255 255 255 255 254 260 267 261 262 263 263 265 265 265 268
252 250 249 250 252 252 252 252 252 252 251 252 251 250 248 249 249 250 251 250 251 251 252 253 254 256 255 256 257 261 268 263 263 263 263 265 268 273
250 247 249 249 247 246 247 246 246 247 247 246 244 246 247 244 248 249 250 250 250 250 250 252 256 260 259 261 258 259 261 267 267 264 265 265 265 268
248 247 246 245 243 242 243 242 243 242 244 244 244 245 246 244 248 248 249 249 249 250 251 253 255 257 259 258 257 258 259 262 266 268 270 269 266 265
246 245 245 244 242 241 241 241 242 244 244 244 244 244 244 246 247 248 249 249 249 249 250 251 254 258 259 258 258 258 258 259 261 261 263 269 271 273
Wind_Speed
6 7 6 6 5 4 4 4 1 2 2 2 3 7 8 9 12 13 13 20 23 24 26 26 26 27 27 27 28 28 28 30 30 30 29 27 27 24
5 8 7 5 5 5 5 5 4 1 1 2 3 6 9 8 11 11 13 17 17 22 23 26 26 27 26 26 27 28 28 28 29 29 30 29 28 28
8 7 9 7 4 6 5 5 4 3 0 3 2 7 7 10 10 10 9 10 9 20 24 26 26 24 24 26 30 28 27 28 28 28 29 29 30 31
8 8 8 7 7 7 4 4 4 2 1 5 4 3 5 8 11 12 10 9 10 17 25 24 23 26 26 29 28 29 29 29 29 29 30 29 30 30
8 7 8 7 6 4 4 3 3 3 2 3 5 4 3 5 10 8 10 10 10 22 20 21 30 29 29 29 29 29 27 28 29 29 29 29 30 31
9 8 8 6 4 3 5 4 4 4 4 4 3 5 4 9 6 10 11 9 12 11 11 22 25 26 27 27 27 25 26 29 31 30 29 28 29 30
7 8 7 6 11 9 4 4 5 4 4 5 5 5 6 11 12 9 10 11 11 2 12 11 11 10 11 18 20 27 34 34 34 34 32 31 32 31
7 7 6 6 7 10 10 11 9 7 8 6 5 7 10 9 9 10 10 11 8 5 13 12 9 9 10 10 26 33 32 31 30 30 32 34 33 32
6 5 6 5 6 6 7 9 9 11 12 7 7 8 10 10 10 12 12 11 10 12 13 10 5 12 12 14 28 29 26 31 36 36 35 35 36 36
7 7 6 5 6 6 7 7 7 7 8 6 7 7 8 9 9 10 11 11 10 7 10 7 10 12 15 13 25 22 30 36 33 38 37 37 37 36
6 7 5 6 9 11 7 6 6 6 7 12 11 12 13 14 13 7 7 9 7 5 3 8 7 15 13 11 8 28 32 33 35 35 41 40 38 38
5 5 9 7 9 10 5 5 5 6 7 9 9 9 10 10 14 10 7 7 7 5 5 12 9 9 12 6 15 14 17 29 35 39 37 38 37 19
3 3 3 7 7 8 8 6 6 6 6 5 5 5 6 7 7 8 9 7 6 6 11 10 9 11 9 14 15 14 14 19 19 22 31 32 36 36
3 2 1 6 6 8 7 9 8 6 2 2 2 4 5 6 7 8 10 9 8 13 13 13 9 12 13 15 13 15 17 16 16 17 15 28 33 35
4 3 4 6 6 7 10 10 6 4 3 2 3 5 6 7 9 8 8 9 10 12 10 12 10 12 11 12 16 19 22 15 16 12 19 16 18 18
5 4 4 5 7 6 5 6 5 5 5 4 4 6 6 6 6 7 8 8 9 5 10 11 12 12 12 10 13 18 16 13 16 18 16 18 17 15
6 2 2 3 3 2 2 3 3 4 3 4 4 5 5 6 6 7 7 7 7 10 10 9 10 11 12 14 13 13 14 18 13 18 20 18 18 16
4 2 1 2 1 2 2 3 2 2 3 4 4 4 5 6 6 7 7 7 8 9 11 12 13 12 7 6 10 14 14 16 18 18 18 17 18 19
2 2 1 1 1 2 3 2 3 3 4 4 5 5 5 6 6 6 7 7 8 8 10 11 11 11 15 16 8 18 19 16 17 18 15 16 18 22
2 2 2 2 2 2 2 2 3 4 4 5 5 5 4 4 6 6 7 8 8 9 10 10 9 9 12 16 21 15 28 19 16 19 19 18 19 34
2 2 3 3 3 3 3 2 3 4 4 4 3 3 5 2 6 6 7 10 10 8 10 11 11 19 14 13 14 15 15 30 25 19 20 18 20 22
2 3 3 3 4 3 2 3 4 3 4 4 5 5 5 3 6 7 7 8 8 8 11 11 13 11 11 12 16 21 18 18 26 31 30 27 15 18
3 4 3 3 3 3 3 3 4 5 4 5 5 5 3 5 5 7 8 8 9 9 10 11 11 11 11 12 16 16 24 22 18 20 22 36 39 38
Wind_Direction
80 75 70 64 55 38 53 52 58 37 300 349 336 29 350 341 338 342 336 331 339 342 346 345 345 344 344 342 342 337 338 336 330 323 319 314 313 295
65 84 79 59 56 54 41 47 37 68 246 344 353 336 337 338 339 336 327 330 331 342 339 340 339 340 338 338 338 335 331 329 326 322 324 321 315 308
86 84 77 63 53 60 49 37 47 359 28 295 307 317 331 333 330 334 333 329 332 334 337 337 338 337 335 333 329 327 329 330 331 328 323 317 312 311
88 77 69 66 53 55 47 37 36 3 345 294 293 326 311 329 333 330 336 336 330 330 333 339 341 334 330 329 328 325 323 324 324 323 325 322 318 312
82 81 83 73 57 48 57 19 12 5 350 299 312 321 297 359 334 335 335 331 331 326 333 347 336 330 326 327 326 322 316 316 315 314 315 314 314 311
93 84 81 70 58 45 52 21 17 18 7 349 328 321 328 340 335 337 340 340 329 322 348 345 328 327 326 328 323 315 313 314 312 310 308 308 309 307
89 93 69 60 58 53 52 40 26 26 24 9 359 337 342 350 352 334 324 325 318 10 343 328 324 324 322 323 316 320 320 318 315 312 309 308 306 307
107 117 102 61 53 55 52 49 39 39 31 12 356 349 340 340 332 333 328 343 340 14 330 314 308 310 316 311 319 315 316 319 322 319 313 307 303 301
99 105 85 44 40 60 52 55 44 46 41 19 353 351 330 333 336 333 334 332 315 315 316 306 316 321 314 314 313 317 317 332 323 317 317 312 306 302
100 92 84 55 38 45 51 46 42 46 31 18 356 332 333 341 336 331 331 314 303 286 319 282 338 314 315 310 309 317 333 322 322 319 315 313 310 301
101 80 57 53 44 51 53 39 30 38 6 9 357 353 351 347 347 341 347 348 330 330 323 331 342 320 313 307 318 331 322 325 319 317 319 311 309 304
127 98 41 53 50 60 66 46 31 20 1 3 357 351 351 347 358 4 346 341 338 326 359 336 334 351 317 305 328 322 320 319 321 316 313 313 315 309
123 89 37 48 55 55 55 43 33 39 11 356 334 335 342 345 352 349 340 334 318 280 298 327 317 313 293 314 315 314 315 321 313 313 312 313 323 313
124 80 35 62 61 53 45 36 40 45 16 330 319 334 342 340 338 331 326 319 307 293 300 295 286 308 303 307 305 312 314 311 308 306 309 323 313 317
112 61 64 67 59 52 34 32 42 34 13 354 338 339 336 324 322 320 317 306 297 291 292 308 296 302 294 295 298 303 312 313 304 316 311 310 316 311
83 54 72 76 57 57 30 21 18 15 354 338 334 325 316 318 319 324 323 322 312 279 303 304 303 301 296 288 292 296 303 299 314 309 308 308 304 298
111 77 61 54 46 30 11 3 5 353 337 328 319 315 315 319 322 327 318 320 306 310 313 311 312 300 280 287 291 291 303 305 309 309 311 307 303 302
76 114 91 63 30 349 331 319 313 310 315 314 300 297 307 315 319 318 311 307 307 312 314 317 321 326 305 282 291 315 305 307 309 309 306 304 306 302
102 110 119 117 275 295 290 292 296 309 317 295 296 299 311 314 318 309 305 306 305 307 305 308 312 322 320 315 316 319 307 310 309 307 307 304 300 297
115 160 193 213 240 250 269 271 285 294 291 290 293 294 289 287 303 299 300 299 301 304 302 301 302 309 310 306 313 312 308 310 312 307 312 303 289 290
182 198 217 228 233 231 241 250 260 275 273 271 266 269 276 244 290 288 287 294 296 296 295 297 296 302 290 293 304 311 312 314 313 311 310 307 310 309
213 221 233 231 235 230 238 240 265 251 258 256 258 256 266 241 279 282 284 290 291 285 284 290 300 299 301 307 306 311 315 317 316 314 313 310 307 304
230 228 234 233 227 228 232 235 237 256 246 251 254 261 252 273 266 271 278 278 278 285 289 295 299 300 300 303 304 310 316 319 321 325 321 325 322 314